Home > Weather > Temuco > Past weeks

Flag for Chile Weather for the Past 2 Weeks in Temuco, Chile

Now
61 °F

Passing clouds.


Feels Like: 61 °F
Forecast: 48 / 86 °F
Wind: 6 mph from West

Location: Concepcion Airport

Current Time: Feb 10, 2016 at 10:06:17 PM

Latest Report: Feb 10, 2016 at 9:00 PM


Visibility: N/A

Pressure: 29.98 "Hg

Humidity: 83%

Dew point: 55 °F

Location of TemucoLocation

Historic Weather in Temuco — Graph

°F

Temuco Temperature Yesterday

Maximum temperature yesterday: 77 °F (at 6:00 PM)
Minimum temperature yesterday: 57 °F (at 3:00 AM)
Average temperature yesterday: 66 °F

High & Low Weather Summary for the Past Weeks

 TemperatureHumidityPressure
High82 °F (Jan 30, 4:00 PM)100% (Jan 28, 3:00 AM)30.04 "Hg (Jan 28, 3:00 AM)
Low50 °F (Feb 6, 6:00 AM)45% (Jan 30, 4:00 PM)29.83 "Hg (Feb 1, 8:00 PM)
Average65 °F73%29.94 "Hg
* Reported Jan 26 8:00 PM — Feb 10 8:00 PM, Temuco, Weather by CustomWeather, © 2016

Note: Actual official high and low records may vary slightly from our data, if they occured in-between our weather recording intervals... More about our weather records

Advertising

Temuco Weather History for the Previous 24 Hours

 ConditionsComfort  
Time TempWeatherWind HumidityBarometerVisibility
8:00 PM
Wed, Feb 10
64 °FPassing clouds.7 mph73%29.98 "HgN/A
7:00 PM64 °FPassing clouds.9 mph73%29.98 "HgN/A
6:00 PM68 °FPassing clouds.9 mph69%29.98 "HgN/A
5:00 PM68 °FPassing clouds.12 mph69%29.98 "HgN/A
4:00 PM68 °FPassing clouds.13 mph69%29.98 "HgN/A
3:00 PM68 °FPassing clouds.15 mph64%29.98 "HgN/A
2:00 PM64 °FPartly sunny.13 mph78%29.98 "HgN/A
1:00 PM63 °FPartly sunny.15 mph77%29.98 "HgN/A
12:00 PM63 °FPartly sunny.13 mph77%29.98 "HgN/A
11:00 AM61 °FLow clouds.13 mph83%29.95 "Hg5 mi
10:00 AM59 °FFog.10 mph88%29.95 "Hg5 mi
9:00 AM57 °FFog.10 mph94%29.92 "Hg2 mi
8:00 AM57 °FFog.8 mph100%29.92 "Hg5 mi
7:00 AM57 °FFog.8 mph94%29.89 "Hg3 mi
6:00 AM57 °FFog.10 mph94%29.89 "Hg2 mi
5:00 AM55 °FClear.1 mph94%29.89 "Hg10 mi
4:00 AM57 °FClear.No wind88%29.89 "Hg10 mi
3:00 AM59 °FClear.No wind82%29.89 "Hg10 mi
2:00 AM59 °FClear.1 mph82%29.89 "Hg10 mi
1:00 AM61 °FClear.No wind83%29.89 "Hg10 mi
12:00 AM63 °FClear.No wind73%29.89 "Hg10 mi
11:00 PM
Tue, Feb 9
64 °FClear.3 mph73%29.92 "Hg10 mi
10:00 PM66 °FClear.5 mph68%29.89 "Hg10 mi
Weather by CustomWeather, © 2016

See weather overviewHow to use our weather pages